FLOCK 2'-2

Last updated on Tue Aug 02 2016 17:39:13 GMT+0000 (Coordinated Universal Time)

1 41609U 16040L 16215.49092166 .00001349 00000-0 66452-4 0 9997 2 41609 97.5033 274.4064 0013498 106.8514 253.4202 15.19638994 6184
UTC large
Height (km)
Speed (km/s)
/
Latitude / Longitude
Inclination (degrees)
Orbital Period (minutes)
Azimuth
Elevation
Range (km)
Doppler Factor

Next 0 passes for location: London (51.5072 / 0.1276)

Sorry there are no passes over London.